TimePST,TemperatureF,Dew PointF,Humidity,Sea Level PressureIn,VisibilityMPH,Wind Direction,Wind SpeedMPH,Gust SpeedMPH,PrecipitationIn,Events,Conditions,WindDirDegrees,DateUTC
12:15 AM,19.4,12.2,74,30.31,10.0,Calm,Calm,-,N/A,,Clear,0,2014-01-20 08:15:00
12:35 AM,21.2,14.0,74,30.30,10.0,Calm,Calm,-,N/A,,Clear,0,2014-01-20 08:35:00
12:55 AM,21.2,14.0,74,30.30,10.0,Calm,Calm,-,N/A,,Clear,0,2014-01-20 08:55:00
1:15 AM,19.4,14.0,80,30.30,10.0,Calm,Calm,-,N/A,,Clear,0,2014-01-20 09:15:00
1:35 AM,19.4,12.2,74,30.31,10.0,Calm,Calm,-,N/A,,Clear,0,2014-01-20 09:35:00
1:55 AM,17.6,12.2,79,30.31,10.0,Calm,Calm,-,N/A,,Clear,0,2014-01-20 09:55:00
2:15 AM,19.4,14.0,80,30.32,10.0,Calm,Calm,-,N/A,,Clear,0,2014-01-20 10:15:00
2:35 AM,19.4,12.2,74,30.32,10.0,Calm,Calm,-,N/A,,Clear,0,2014-01-20 10:35:00
2:55 AM,17.6,12.2,79,30.32,10.0,Calm,Calm,-,N/A,,Clear,0,2014-01-20 10:55:00
3:15 AM,15.8,10.4,79,30.32,10.0,Calm,Calm,-,N/A,,Clear,0,2014-01-20 11:15:00
3:35 AM,17.6,12.2,79,30.32,10.0,Calm,Calm,-,N/A,,Clear,0,2014-01-20 11:35:00
3:55 AM,17.6,12.2,79,30.33,10.0,Calm,Calm,-,N/A,,Clear,0,2014-01-20 11:55:00
4:15 AM,14.0,10.4,86,30.33,10.0,Calm,Calm,-,N/A,,Clear,0,2014-01-20 12:15:00
4:35 AM,14.0,10.4,86,30.33,10.0,Calm,Calm,-,N/A,,Clear,0,2014-01-20 12:35:00
4:55 AM,15.8,12.2,86,30.33,10.0,Calm,Calm,-,N/A,,Clear,0,2014-01-20 12:55:00
5:15 AM,12.2,10.4,92,30.34,10.0,Calm,Calm,-,N/A,,Clear,0,2014-01-20 13:15:00
5:35 AM,12.2,8.6,85,30.34,10.0,Calm,Calm,-,N/A,,Clear,0,2014-01-20 13:35:00
6:55 AM,12.2,10.4,92,30.35,10.0,Calm,Calm,-,N/A,,Clear,0,2014-01-20 14:55:00
7:45 AM,12.2,8.6,85,30.36,10.0,Calm,Calm,-,N/A,,Clear,0,2014-01-20 15:45:00
8:45 AM,19.4,15.8,86,30.37,10.0,Calm,Calm,-,N/A,,Clear,0,2014-01-20 16:45:00
9:50 AM,26.6,17.6,69,30.38,10.0,Calm,Calm,-,N/A,,Partly Cloudy,0,2014-01-20 17:50:00
10:50 AM,33.8,17.6,52,30.37,10.0,Calm,Calm,-,N/A,,Partly Cloudy,0,2014-01-20 18:50:00
11:50 AM,41.0,15.8,36,30.35,10.0,Calm,Calm,-,N/A,,Clear,0,2014-01-20 19:50:00
12:50 PM,48.2,12.2,24,30.31,10.0,North,3.5,-,N/A,,Clear,10,2014-01-20 20:50:00
1:45 PM,53.6,12.2,19,30.29,10.0,NNE,3.5,-,N/A,,Clear,30,2014-01-20 21:45:00
2:50 PM,55.4,8.6,15,30.29,10.0,South,6.9,-,N/A,,Clear,180,2014-01-20 22:50:00
3:45 PM,55.4,10.4,17,30.31,10.0,Calm,Calm,-,N/A,,Clear,0,2014-01-20 23:45:00
4:50 PM,46.4,12.2,25,30.31,10.0,Calm,Calm,-,N/A,,Clear,0,2014-01-21 00:50:00
4:55 PM,44.6,14.0,29,30.31,10.0,Calm,Calm,-,N/A,,Clear,0,2014-01-21 00:55:00
5:15 PM,44.6,12.2,27,30.32,10.0,Calm,Calm,-,N/A,,Clear,0,2014-01-21 01:15:00
5:35 PM,35.6,14.0,41,30.33,10.0,Calm,Calm,-,N/A,,Clear,0,2014-01-21 01:35:00
5:55 PM,33.8,15.8,48,30.34,10.0,Calm,Calm,-,N/A,,Clear,0,2014-01-21 01:55:00
6:15 PM,32.0,17.6,55,30.35,10.0,Calm,Calm,-,N/A,,Clear,0,2014-01-21 02:15:00
6:35 PM,32.0,17.6,55,30.36,10.0,Calm,Calm,-,N/A,,Clear,0,2014-01-21 02:35:00
6:55 PM,30.2,17.6,60,30.37,10.0,Calm,Calm,-,N/A,,Clear,0,2014-01-21 02:55:00
7:15 PM,28.4,17.6,64,30.37,10.0,Calm,Calm,-,N/A,,Clear,0,2014-01-21 03:15:00
7:35 PM,26.6,17.6,69,30.37,10.0,Calm,Calm,-,N/A,,Clear,0,2014-01-21 03:35:00
7:55 PM,28.4,17.6,64,30.38,10.0,South,3.5,-,N/A,,Clear,170,2014-01-21 03:55:00
8:15 PM,24.8,15.8,69,30.39,10.0,Calm,Calm,-,N/A,,Clear,0,2014-01-21 04:15:00
8:35 PM,24.8,17.6,74,30.39,10.0,Calm,Calm,-,N/A,,Clear,0,2014-01-21 04:35:00
8:55 PM,26.6,15.8,64,30.39,10.0,Calm,Calm,-,N/A,,Clear,0,2014-01-21 04:55:00
9:15 PM,24.8,15.8,69,30.40,10.0,Calm,Calm,-,N/A,,Clear,0,2014-01-21 05:15:00
9:35 PM,23.0,14.0,68,30.40,10.0,Calm,Calm,-,N/A,,Clear,0,2014-01-21 05:35:00
9:55 PM,23.0,15.8,74,30.41,10.0,Calm,Calm,-,N/A,,Clear,0,2014-01-21 05:55:00
10:15 PM,24.8,15.8,69,30.41,10.0,Calm,Calm,-,N/A,,Clear,0,2014-01-21 06:15:00
10:35 PM,23.0,15.8,74,30.41,10.0,Calm,Calm,-,N/A,,Clear,0,2014-01-21 06:35:00
10:55 PM,23.0,14.0,68,30.42,10.0,Calm,Calm,-,N/A,,Clear,0,2014-01-21 06:55:00
11:15 PM,23.0,15.8,74,30.42,10.0,Calm,Calm,-,N/A,,Clear,0,2014-01-21 07:15:00
11:35 PM,23.0,14.0,68,30.42,10.0,Calm,Calm,-,N/A,,Clear,0,2014-01-21 07:35:00
11:55 PM,23.0,14.0,68,30.42,10.0,Calm,Calm,-,N/A,,Clear,0,2014-01-21 07:55:00